Dewpoint
-16 -13 -12 -12 -11 -10 -9 -8 -7 -7 -7 -7 -8 -10 -10 -10 -8 -3 -2 -3 -1 -1 0 1 4 4 4 5 6 5 6 7 5 5 4 1 2 2 2 2 2 1 5 8 11
-11 -13 -15 -14 -13 -12 -11 -11 -10 -9 -9 -8 -7 -8 -10 -10 -11 -5 -5 -3 -2 -1 2 3 4 4 5 5 5 5 6 5 3 3 3 2 3 3 2 2 1 2 8 6 11
-12 -12 -12 -13 -15 -14 -13 -12 -12 -12 -11 -10 -9 -8 -8 -10 -10 -4 -5 -3 -1 0 3 4 4 5 5 5 5 5 6 4 3 3 3 3 3 3 2 3 1 1 1 5 9
-11 -11 -12 -12 -13 -13 -15 -15 -12 -11 -11 -12 -12 -9 -8 -9 -10 -5 -5 -2 0 1 4 5 5 5 5 5 5 6 4 4 4 3 3 3 3 2 2 2 1 -1 -1 2 7
-11 -11 -11 -12 -12 -12 -13 -14 -14 -15 -13 -10 -10 -11 -10 -8 -10 -10 -4 -2 1 1 3 5 5 5 5 5 5 5 4 4 4 4 4 4 4 3 2 2 0 -1 -1 3 6
-10 -10 -10 -10 -11 -11 -11 -12 -14 -14 -13 -12 -10 -9 -10 -4 -9 -5 -3 -3 1 1 3 5 5 6 5 5 5 4 4 4 4 3 4 4 3 3 2 0 0 -2 -2 -2 0
-11 -12 -13 -13 -13 -12 -11 -11 -12 -13 -13 -12 -12 -9 -8 -12 -9 -7 -1 -3 0 2 2 4 5 4 5 5 5 5 6 4 2 2 2 2 3 3 0 -0 -0 -1 -1 -1 -3
-12 -12 -13 -14 -16 -17 -17 -12 -11 -11 -11 -11 -11 -9 -9 -10 -9 -8 -1 -3 -0 2 2 4 4 5 5 5 5 3 3 5 1 1 0 1 4 1 -1 -0 -1 -1 -1 -2 -1
-12 -12 -13 -14 -15 -16 -18 -18 -14 -12 -11 -9 -10 -9 -9 -8 -7 -6 -1 -3 -1 2 3 5 5 5 4 5 3 1 5 4 3 1 1 2 4 1 0 -0 -0 -0 -0 -1 -2
-12 -12 -12 -13 -13 -14 -16 -17 -14 -12 -7 -7 -7 -5 -9 -8 -5 -4 -0 -1 0 2 4 4 5 4 4 4 4 2 4 4 4 2 2 3 4 1 0 -0 -0 -1 -1 -1 -2
-12 -12 -12 -13 -13 -14 -15 -13 -11 -9 -7 -9 -14 -11 -8 -6 -2 0 0 -0 2 3 4 5 5 6 4 4 2 3 4 5 3 2 3 4 3 1 0 0 0 -0 -1 -1 -2
-8 -9 -9 -9 -9 -11 -12 -11 -5 -6 -2 -12 -13 -6 -5 -4 0 1 0 0 3 3 2 3 5 3 2 2 3 3 4 4 3 2 2 3 3 1 0 0 -0 -0 -1 -2 -1
-33 -35 -34 -26 -15 -7 -9 -4 -4 -5 -0 -7 -6 -6 -6 -2 -0 -0 1 2 3 3 3 2 -2 1 2 3 4 4 4 4 4 3 2 2 2 0 -2 -0 -1 -0 -1 -2 -2
-35 -36 -37 -37 -10 -6 -5 -4 -3 -3 -1 -5 -6 -3 -4 -5 -1 -2 1 -1 3 3 3 3 1 2 3 3 3 5 2 3 4 3 5 1 5 2 -0 -1 -1 -1 -2 -1 -2
-34 -36 -37 -36 -32 -6 -3 -5 -4 -2 -8 -11 -5 -3 -2 -4 -1 1 1 1 1 2 1 -2 3 3 4 3 2 3 2 2 1 2 3 2 5 2 -1 -0 -1 -2 -2 -2 -2
-32 -33 -36 -30 -28 -8 -2 -2 -3 -4 -8 -10 -3 -1 -1 -1 -1 2 2 1 -1 0 -0 1 0 1 1 2 2 1 2 -1 1 3 5 2 3 4 -0 -2 -2 -3 -3 -3 -3
-33 -32 -33 -32 -10 -1 -2 -3 -4 -5 -12 -12 -7 -1 -1 -2 -1 1 2 2 1 1 0 -4 -1 -0 1 3 3 2 2 2 1 4 4 -1 3 2 -1 -2 -2 -2 -3 -3 -2
-29 -28 -9 -9 -9 -9 -2 -4 -6 -9 -8 -7 -4 -2 -1 -2 -2 1 1 2 0 -4 -3 -2 -4 1 1 1 3 3 2 2 1 2 1 1 4 2 -1 -2 -2 -3 -4 -3 -3
-26 -8 2 2 1 -4 -1 -3 -5 -6 -2 -1 -4 -2 -3 -3 -3 -0 0 -0 -1 -2 -1 -2 -2 -0 2 1 1 3 4 0 3 2 4 2 -0 -2 -3 -3 -3 -3 -4 -4 -4
-23 -1 -1 2 2 1 -2 -1 -4 -2 -3 -2 -1 -4 -4 -2 -3 -1 -2 -3 -2 -2 -5 -5 -3 0 1 2 1 2 1 4 3 4 4 2 1 2 -2 -3 -3 -4 -4 -4 -4
-19 -6 -4 -0 -1 -0 -0 -0 -1 -2 -8 -2 0 -0 -1 -1 -4 -4 -4 -5 -4 -3 -4 -4 -3 -2 3 3 4 3 3 2 2 1 2 1 1 -1 -1 -3 -3 -3 -4 -4 -5
-14 -11 -10 -5 -2 -1 -3 -4 -7 -5 -10 -6 -2 -3 -3 -4 -1 -2 -2 -4 -9 -5 -2 -4 -2 -0 2 1 1 1 2 1 2 2 2 1 2 -3 -2 -3 -3 -3 -4 -5 -6
-8 -9 -14 -8 -5 -7 -7 -8 -7 -9 -9 -8 -8 -3 -8 -3 -4 -6 -4 -7 -9 -3 -5 -3 -0 1 -1 -3 -2 4 2 1 -0 1 3 3 2 -4 -3 -3 -3 -4 -4 -5 -5
-7 -6 -10 -10 -7 -8 -7 -6 -7 -9 -9 -9 -9 -10 -9 -8 -9 -5 -7 -10 -11 -10 -11 -8 -0 1 1 -4 -2 3 3 2 1 3 2 2 -1 -4 -5 -3 -2 -3 -4 -5 -5
-8 -5 -5 -6 -7 -6 -6 -6 -6 -8 -10 -10 -8 -9 -7 -4 -7 -8 -10 -9 -9 -10 -8 -8 -0 1 1 -1 -3 -2 -0 3 3 2 2 -0 0 -2 -4 -4 -4 -5 -4 -4 -5
-8 -7 -6 -6 -6 -5 -7 -6 -7 -8 -7 -7 -7 -7 -7 -5 -6 -5 -7 -7 -7 -9 -9 -7 -2 -2 -2 -5 0 0 -2 -2 1 3 2 1 -1 -4 -5 -5 -4 -4 -3 -4 -6
-4 -4 -5 -6 -6 -7 -7 -8 -8 -9 -9 -9 -7 -6 -6 -7 -8 -8 -8 -8 -8 -7 -7 -7 -6 -6 -4 -7 -5 1 1 -1 -3 -0 0 3 1 -2 -2 -3 -3 -4 -4 -6 -8
Wind_Speed
8 8 10 10 10 10 11 11 12 12 13 14 15 15 15 15 13 9 7 8 8 7 4 1 2 2 2 3 4 4 1 3 4 3 4 10 4 9 15 13 15 16 17 15 10
9 9 10 10 11 11 11 12 12 13 14 15 15 16 17 17 17 8 6 7 6 5 2 0 4 1 2 3 4 4 3 6 6 5 6 10 7 17 11 15 15 19 9 11 13
10 10 10 11 11 11 12 13 14 15 16 17 16 16 17 18 17 5 5 4 2 3 3 1 1 1 3 4 5 5 5 4 9 19 20 13 15 15 12 9 20 17 19 14 17
13 13 14 14 14 13 13 13 13 14 15 16 17 17 17 15 4 4 5 3 2 3 4 2 2 2 2 3 4 3 11 13 9 13 9 8 13 9 14 17 27 23 23 24 19
14 15 15 16 17 17 17 16 16 16 17 17 16 16 15 9 10 8 4 3 3 4 5 4 5 3 3 3 3 5 5 13 20 21 22 22 20 17 18 26 24 27 26 20 17
15 15 16 17 18 18 19 18 17 17 17 17 16 15 12 6 7 8 5 3 4 4 5 6 4 4 4 4 4 3 10 16 20 23 14 10 10 6 15 18 21 24 25 24 17
15 16 17 17 18 19 19 19 18 18 18 18 16 14 15 21 10 9 8 4 5 5 5 6 6 5 1 3 5 8 6 9 9 4 5 5 5 7 12 11 19 28 27 25 23
17 18 18 18 19 19 20 19 20 21 20 17 14 13 10 10 11 15 11 7 7 7 5 4 4 5 4 5 4 3 1 4 3 4 2 2 8 6 17 9 20 17 18 18 17
18 19 20 20 21 21 21 21 22 22 17 11 9 8 10 9 13 14 13 9 8 7 6 5 3 3 2 1 3 2 4 4 7 2 3 2 9 11 27 18 16 18 17 12 14
21 22 22 22 22 23 21 21 20 16 11 6 9 5 11 8 9 13 16 11 7 8 5 6 4 1 1 3 4 3 4 4 6 4 3 13 22 18 18 18 21 25 22 20 21
25 26 26 24 23 22 23 18 8 6 6 10 19 24 9 9 10 13 16 13 9 7 5 5 2 9 11 9 3 2 3 8 7 10 5 12 18 19 25 15 19 27 28 24 21
28 29 29 27 24 22 17 9 6 10 14 26 33 33 22 12 10 14 15 11 8 6 5 2 10 10 6 5 5 5 5 8 7 3 5 12 23 22 22 20 19 26 29 30 25
26 25 26 25 20 14 10 7 9 11 6 18 12 5 8 23 10 18 21 11 5 7 8 7 4 4 7 5 4 4 5 4 8 6 4 10 10 6 5 5 9 19 25 28 30
25 24 23 22 8 6 6 7 9 10 4 7 2 1 5 5 4 14 21 7 4 10 6 7 4 6 5 6 8 4 6 6 3 4 3 5 7 7 6 10 6 14 16 23 25
23 23 22 18 16 5 7 7 6 4 4 4 2 4 5 4 4 2 16 9 4 5 5 5 7 5 5 7 10 8 5 3 1 1 5 1 2 8 4 7 7 6 9 16 23
22 23 21 16 11 5 1 0 1 6 7 4 2 2 3 2 1 3 5 4 1 3 3 7 1 4 7 4 8 5 4 4 2 1 3 2 4 6 3 4 4 4 5 1 8
25 23 20 15 3 4 4 1 5 5 2 4 2 1 1 4 3 6 6 6 6 1 4 2 4 3 4 4 1 2 4 2 3 2 5 2 2 11 9 9 6 9 17 15 8
23 18 11 8 5 4 6 4 3 2 6 5 5 1 4 4 4 4 4 4 6 3 2 3 11 9 6 6 7 7 6 4 6 4 2 3 6 6 5 6 8 13 16 6 4
23 6 13 10 4 4 5 3 5 3 6 10 10 3 3 4 1 2 5 4 7 14 9 6 7 3 4 4 7 5 8 3 4 1 1 4 6 9 6 6 5 5 5 10 12
23 9 19 13 6 5 4 2 2 10 9 6 4 7 6 10 7 3 3 1 4 9 4 4 5 4 4 4 2 5 6 3 0 6 6 4 5 6 3 2 3 2 4 8 11
19 5 19 7 5 1 1 1 4 13 17 7 5 7 5 7 7 5 6 5 14 9 5 3 4 3 5 11 11 5 4 3 3 4 4 2 6 6 8 6 6 5 3 3 9
14 4 22 6 5 6 3 5 8 7 11 4 3 5 4 6 5 5 5 7 26 13 8 6 4 5 11 5 4 4 8 8 5 5 4 1 6 3 6 7 4 6 6 6 15
8 9 18 12 4 4 4 3 5 5 5 4 3 0 6 5 7 9 8 18 24 12 10 10 5 4 5 3 2 6 6 8 4 3 9 7 5 1 3 5 11 6 9 16 22
7 4 8 9 6 3 2 5 4 7 8 4 6 4 7 11 10 6 16 10 24 26 30 15 8 12 11 6 3 5 8 15 15 5 9 13 4 6 5 5 6 10 14 25 27
9 2 1 4 4 10 2 4 9 7 7 7 3 5 9 5 12 14 12 21 15 27 10 8 9 13 18 18 8 13 6 10 16 21 10 8 14 17 15 9 11 15 19 23 29
7 4 2 8 10 5 4 4 11 14 6 8 10 17 13 11 16 21 18 16 13 9 12 5 13 14 24 20 17 19 15 13 18 20 20 17 7 7 15 12 14 21 22 25 25
14 14 10 7 3 3 6 6 11 10 15 20 13 9 16 21 24 25 27 28 20 19 21 17 11 13 21 19 17 16 23 25 19 9 14 17 14 13 19 9 13 21 23 20 23
Wind_Direction
337 325 317 309 303 299 300 305 310 314 318 322 327 332 330 331 333 300 306 310 286 284 290 302 230 304 184 189 186 164 98 246 253 218 247 265 268 283 305 288 292 287 267 274 249
3 343 327 314 306 301 299 299 300 302 304 306 311 318 323 326 326 292 300 318 284 254 250 313 191 216 193 192 192 171 191 225 215 216 244 275 266 290 298 301 296 297 293 305 254
12 8 358 343 327 317 313 309 306 305 303 302 304 309 314 320 324 178 334 316 271 215 211 225 207 201 202 197 200 192 224 218 246 253 264 270 273 273 267 277 275 281 291 292 235
3 360 358 355 349 338 323 316 313 310 304 300 299 300 305 313 308 225 322 316 240 205 207 214 214 209 203 215 200 245 248 248 274 277 277 256 276 264 250 264 277 285 289 291 241
0 358 354 350 348 345 337 326 315 310 309 306 300 296 300 290 269 256 285 290 223 218 211 223 230 207 226 228 270 223 260 265 267 278 273 269 263 257 262 270 270 279 282 274 274
355 353 351 347 346 343 338 330 319 311 306 302 298 293 284 263 254 235 252 263 224 212 215 221 229 230 259 238 204 268 269 273 285 276 264 255 263 191 261 259 260 267 269 279 292
344 343 342 341 340 340 336 330 325 318 309 301 293 283 268 268 248 233 233 248 227 217 214 220 232 237 227 271 269 280 296 305 258 258 278 250 263 218 279 293 272 267 275 280 276
334 332 331 330 331 333 332 326 320 315 307 294 282 272 256 253 233 226 222 228 221 219 217 227 240 251 230 290 302 296 304 317 296 317 225 168 268 259 305 307 302 299 282 273 265
321 320 321 324 326 327 328 323 319 312 303 292 266 246 267 250 233 221 218 220 208 209 201 198 231 238 256 307 330 339 262 255 302 280 274 52 284 266 293 299 283 293 282 262 287
316 316 317 318 319 319 323 321 315 303 292 280 249 244 230 231 212 203 203 208 196 186 185 192 201 172 93 134 244 223 268 255 248 282 292 288 280 281 272 280 273 281 275 270 270
313 313 310 311 314 317 320 331 319 292 268 241 277 257 254 231 202 194 193 193 180 177 180 188 155 218 209 203 205 241 244 261 268 274 284 266 278 278 281 249 253 263 259 253 255
311 311 308 309 310 315 319 336 317 299 297 282 271 257 247 227 198 192 189 181 174 190 147 103 235 225 208 194 209 226 272 274 283 273 280 290 285 280 273 265 242 241 246 245 244
326 325 320 314 307 301 323 335 329 324 275 285 269 249 238 215 209 195 191 190 172 179 192 183 200 109 164 189 200 217 223 234 263 324 256 315 286 322 297 258 269 247 250 247 239
336 333 330 330 332 320 325 323 330 335 13 276 294 348 172 190 232 217 200 182 205 203 180 235 233 197 182 212 165 265 210 241 266 358 300 53 295 299 315 300 275 263 245 243 241
338 333 330 333 318 321 297 305 324 348 344 250 183 160 171 179 142 169 191 212 211 197 145 248 168 177 189 215 163 221 163 173 210 228 310 85 239 273 331 309 310 294 252 235 234
338 329 324 323 313 286 210 241 312 48 258 311 125 137 114 213 175 123 172 190 110 196 257 252 258 197 211 194 184 136 123 62 75 208 263 197 169 282 273 233 318 346 32 248 267
342 332 328 316 336 231 278 186 42 145 318 305 335 154 207 215 211 175 171 183 193 122 241 300 219 258 160 121 14 166 108 330 359 193 231 173 196 252 271 270 241 279 297 304 267
346 342 355 354 313 233 166 62 157 234 296 339 1 312 233 163 250 187 164 232 224 116 126 184 286 183 193 190 182 176 167 177 209 196 230 138 234 248 221 277 267 288 309 315 234
354 33 26 1 338 185 164 104 213 10 307 333 322 288 288 339 242 185 224 228 221 181 192 188 265 169 185 157 145 169 211 197 99 35 332 227 279 286 284 298 220 271 32 65 68
356 90 26 15 33 129 67 299 47 37 335 348 327 38 353 344 330 338 239 193 269 199 18 280 288 201 177 142 147 174 155 115 119 196 228 263 269 235 282 93 117 177 50 79 62
4 63 10 16 27 147 239 309 350 5 18 349 340 313 338 353 325 295 285 17 2 345 338 325 173 264 141 205 177 167 193 188 148 175 187 235 256 212 213 228 231 236 256 299 341
8 50 10 354 39 15 38 337 315 317 350 335 308 57 7 345 287 268 273 358 358 331 343 325 246 231 216 220 214 229 186 162 175 206 213 159 271 245 222 230 229 262 195 316 325
7 349 7 33 68 348 302 295 270 315 335 329 281 121 299 314 338 346 339 328 324 360 3 354 293 271 285 13 330 223 207 197 114 97 199 170 248 265 237 216 223 212 291 325 331
6 11 357 38 80 127 323 297 313 315 297 309 319 329 335 312 285 283 292 294 330 312 302 290 233 248 247 226 130 199 211 199 194 190 210 224 254 287 275 246 248 252 299 316 323
16 26 51 329 330 316 186 257 293 304 245 280 267 253 308 277 287 278 286 303 298 289 288 315 276 277 270 267 258 259 234 208 213 225 210 206 219 241 247 269 280 291 296 298 309
335 331 278 272 272 254 278 232 277 284 261 285 289 288 287 269 269 283 287 284 284 279 268 280 272 301 298 297 272 253 250 229 225 228 242 252 250 251 258 233 256 264 278 290 298
325 299 255 234 191 209 238 240 254 284 281 269 264 280 287 272 274 282 277 272 267 270 269 262 264 264 270 284 298 260 230 234 242 215 217 230 232 233 266 220 245 268 278 282 292
Height
1542 1540 1539 1538 1536 1535 1534 1533 1531 1530 1528 1527 1525 1524 1522 1520 1518 1515 1515 1515 1514 1513 1513 1512 1512 1513 1513 1514 1514 1515 1518 1518 1514 1511 1504 1500 1501 1499 1497 1495 1491 1489 1485 1484 1484
1541 1540 1538 1536 1535 1533 1531 1530 1528 1527 1526 1525 1523 1522 1519 1517 1515 1513 1513 1511 1511 1511 1512 1511 1512 1512 1513 1513 1514 1514 1516 1511 1505 1503 1501 1499 1499 1496 1496 1492 1487 1485 1484 1479 1479
1541 1538 1537 1535 1533 1531 1530 1528 1526 1525 1523 1522 1521 1519 1517 1515 1512 1509 1510 1509 1509 1509 1510 1510 1510 1511 1511 1511 1511 1510 1508 1503 1500 1499 1498 1496 1494 1494 1491 1488 1484 1482 1481 1482 1477
1541 1539 1536 1534 1532 1529 1527 1525 1523 1522 1520 1519 1517 1516 1515 1514 1515 1508 1508 1508 1507 1508 1509 1509 1510 1510 1510 1509 1508 1508 1502 1501 1496 1495 1495 1492 1489 1488 1487 1484 1481 1478 1477 1474 1476
1540 1538 1536 1533 1530 1528 1525 1523 1521 1519 1518 1516 1514 1514 1513 1511 1507 1505 1506 1506 1506 1507 1508 1508 1509 1509 1509 1507 1506 1504 1500 1498 1494 1492 1491 1488 1485 1484 1480 1478 1476 1474 1473 1469 1467
1539 1537 1534 1532 1529 1527 1524 1521 1518 1516 1514 1512 1511 1510 1510 1510 1503 1504 1504 1504 1504 1504 1506 1507 1507 1507 1506 1505 1505 1500 1498 1494 1490 1485 1485 1483 1478 1479 1471 1471 1470 1469 1468 1466 1465
1539 1536 1533 1530 1527 1524 1521 1518 1515 1512 1510 1508 1507 1506 1505 1500 1499 1500 1501 1502 1502 1503 1504 1504 1505 1506 1505 1503 1501 1498 1497 1490 1483 1482 1481 1479 1475 1473 1467 1469 1468 1464 1462 1461 1461
1537 1534 1531 1528 1524 1521 1518 1515 1512 1509 1506 1504 1503 1503 1498 1494 1494 1496 1498 1499 1500 1500 1501 1502 1503 1504 1503 1501 1498 1499 1498 1495 1481 1481 1478 1477 1471 1464 1464 1465 1463 1459 1455 1455 1456
1535 1531 1529 1526 1522 1519 1516 1511 1508 1505 1502 1500 1500 1501 1494 1491 1491 1493 1496 1496 1497 1498 1499 1500 1501 1501 1502 1503 1503 1501 1496 1497 1487 1479 1480 1477 1469 1462 1460 1460 1458 1456 1453 1450 1450
1531 1528 1525 1522 1519 1516 1513 1508 1503 1500 1498 1498 1497 1499 1489 1485 1486 1488 1491 1494 1495 1497 1499 1500 1500 1501 1502 1503 1501 1496 1497 1494 1491 1480 1477 1474 1461 1455 1454 1455 1452 1450 1449 1448 1446
1528 1525 1521 1518 1515 1512 1510 1507 1505 1501 1496 1491 1487 1483 1481 1482 1484 1485 1487 1489 1492 1494 1496 1497 1501 1495 1491 1492 1492 1493 1496 1493 1485 1479 1479 1470 1457 1449 1444 1446 1445 1442 1442 1444 1444
1524 1520 1516 1515 1513 1510 1508 1505 1504 1503 1493 1483 1476 1474 1478 1480 1480 1482 1486 1488 1489 1491 1493 1498 1493 1484 1487 1490 1492 1494 1495 1489 1482 1477 1476 1465 1450 1439 1434 1431 1433 1432 1433 1435 1438
1520 1516 1511 1508 1507 1507 1505 1505 1503 1500 1496 1475 1468 1469 1470 1474 1474 1476 1480 1481 1484 1488 1489 1489 1480 1479 1483 1487 1490 1490 1491 1488 1484 1479 1474 1468 1445 1437 1428 1425 1425 1426 1427 1429 1432
1517 1512 1508 1504 1505 1503 1504 1503 1501 1499 1504 1478 1470 1469 1469 1471 1474 1475 1476 1478 1481 1481 1485 1485 1476 1478 1482 1481 1483 1486 1479 1481 1483 1483 1480 1473 1465 1441 1432 1428 1424 1422 1423 1423 1425
1514 1510 1506 1503 1502 1502 1503 1502 1501 1500 1531 1471 1468 1468 1470 1472 1472 1473 1475 1477 1478 1480 1482 1471 1474 1477 1478 1474 1475 1476 1475 1477 1479 1483 1479 1478 1482 1440 1436 1425 1420 1417 1417 1419 1422
1511 1506 1502 1500 1498 1498 1498 1498 1501 1518 1525 1470 1468 1469 1469 1469 1471 1472 1474 1476 1477 1477 1477 1474 1472 1471 1469 1469 1470 1469 1474 1480 1483 1482 1480 1474 1476 1445 1433 1425 1422 1420 1418 1420 1421
1509 1504 1500 1497 1499 1497 1498 1500 1516 1526 1476 1469 1471 1470 1470 1469 1468 1469 1472 1475 1477 1481 1481 1472 1470 1465 1464 1468 1471 1471 1475 1495 1496 1483 1474 1490 1480 1439 1425 1423 1423 1420 1418 1419 1418
1504 1500 1496 1495 1495 1496 1497 1502 1518 1490 1486 1477 1476 1474 1473 1469 1467 1468 1470 1471 1470 1472 1486 1478 1458 1462 1459 1458 1463 1470 1471 1481 1472 1484 1469 1480 1461 1429 1420 1418 1418 1418 1416 1413 1415
1501 1498 1497 1496 1494 1495 1498 1516 1501 1498 1497 1490 1479 1474 1472 1470 1470 1470 1471 1470 1463 1462 1466 1472 1461 1452 1453 1453 1456 1465 1463 1463 1472 1479 1473 1459 1447 1425 1414 1413 1413 1416 1415 1413 1413
1500 1498 1500 1498 1496 1497 1501 1503 1501 1507 1501 1496 1488 1485 1486 1483 1478 1473 1467 1462 1460 1457 1457 1455 1459 1447 1448 1450 1453 1453 1455 1465 1471 1472 1471 1456 1452 1428 1414 1411 1411 1412 1414 1414 1413
1501 1502 1503 1501 1500 1500 1502 1507 1506 1507 1506 1504 1500 1495 1491 1495 1486 1478 1469 1465 1470 1464 1461 1458 1459 1451 1449 1441 1443 1451 1453 1455 1456 1459 1453 1452 1435 1416 1414 1410 1410 1410 1411 1412 1411
1506 1507 1505 1503 1503 1507 1511 1515 1512 1507 1505 1503 1500 1500 1500 1498 1492 1483 1474 1471 1476 1473 1469 1461 1454 1451 1439 1435 1435 1435 1432 1439 1440 1451 1454 1461 1439 1410 1410 1409 1407 1408 1408 1408 1408
1514 1512 1509 1505 1517 1520 1516 1514 1510 1508 1506 1501 1500 1499 1498 1499 1500 1491 1484 1479 1479 1479 1481 1477 1456 1449 1434 1439 1436 1431 1431 1427 1435 1441 1436 1446 1434 1409 1409 1408 1406 1406 1406 1406 1403
1518 1518 1515 1513 1517 1519 1520 1513 1509 1507 1505 1502 1500 1499 1498 1497 1495 1491 1487 1478 1476 1476 1472 1475 1459 1444 1427 1420 1423 1428 1423 1421 1419 1434 1416 1418 1419 1406 1407 1406 1405 1404 1404 1399 1401
1523 1523 1522 1522 1518 1517 1518 1514 1510 1505 1503 1501 1498 1497 1498 1496 1489 1485 1478 1477 1473 1470 1468 1469 1452 1439 1429 1424 1423 1418 1416 1420 1418 1407 1411 1404 1410 1405 1402 1404 1402 1402 1401 1399 1396
1526 1524 1521 1519 1517 1515 1512 1510 1506 1502 1504 1498 1500 1494 1493 1491 1486 1481 1478 1474 1470 1462 1463 1457 1449 1445 1435 1426 1417 1409 1410 1411 1408 1406 1404 1405 1408 1402 1395 1399 1399 1398 1398 1396 1393
1522 1520 1516 1512 1511 1513 1508 1504 1499 1499 1497 1492 1491 1490 1486 1479 1476 1472 1469 1465 1464 1460 1456 1457 1454 1447 1435 1426 1422 1404 1392 1392 1398 1399 1399 1402 1397 1397 1392 1393 1391 1391 1393 1392 1390